Regional Weather Roundup
Issued by NWS

Home | Current Version | Previous Version | Graphics & Text | Print | Product List | Glossary Off
Versions: 1 2 3 4 5 6 7 8 9 10 11 12 13 14 15 16 17 18 19 20 21 22 23 24 25 26 27 28 29 30 31 32 33 34 35 36 37 38 39 40 41 42 43 44 45 46 47 48 49 50

000
ASUS43 KMKX 011321
RWRWI

WISCONSIN REGIONAL WEATHER ROUNDUP
NATIONAL WEATHER SERVICE MILWAUKEE/SULLIVAN WI
800 AM CDT WED JUL 01 2015

NOTE: "FAIR" INDICATES FEW OR NO CLOUDS BELOW 12,000 FEET WITH NO
SIGNIFICANT WEATHER AND/OR OBSTRUCTIONS TO VISIBILITY.

WIZ001-002-006>008-014>016-023>028-011400-
NORTHWEST WISCONSIN

CITY           SKY/WX    TMP DP  RH WIND       PRES   REMARKS
SUPERIOR ARPT  MOSUNNY   54  52  92 CALM      30.03S
ASHLAND        MOSUNNY   52  50  93 CALM      30.04R
HAYWARD        MOSUNNY   53  49  86 CALM      30.04R
SIREN          PTSUNNY   55  50  82 SE3       30.02F
CUMBERLAND     PTSUNNY   54  48  82 CALM      30.03R
RICE LAKE      PTSUNNY   54  46  72 CALM      30.04S
CHETEK         PTSUNNY   53  48  83 CALM      30.03S
LADYSMITH      MOSUNNY   52  48  84 CALM      30.05S
EAU CLAIRE     MOSUNNY   54  49  83 NE3       30.02R
MENOMONIE      MOSUNNY   54  49  83 CALM      30.02R
NEW RICHMOND   PTSUNNY   55  48  77 SE3       30.02S
OSCEOLA        CLOUDY    56  48  73 E5        30.04S
$$

WIZ003>005-009-010-017-018-011400-
NORTH CENTRAL WISCONSIN

CITY           SKY/WX    TMP DP  RH WIND       PRES   REMARKS
MANITOWISH WTR SUNNY     51  45  81 CALM      30.04R
ARBOR VITAE    SUNNY     52  46  78 N5        30.03S
WOODRUFF       SUNNY     52  46  78 N5        30.03S
RHINELANDER    SUNNY     51  43  74 VRB6      30.03R
EAGLE RIVER    SUNNY     48  44  88 CALM      30.03R
LAND O LAKES   SUNNY     51  43  74 N5        30.04R
PHILLIPS       PTSUNNY   49  46  88 NE3       30.03S
TOMAHAWK       SUNNY     47  46  97 CALM      30.03F
MEDFORD        MOSUNNY   50  46  84 NE3       30.03R
MERRILL        SUNNY     51  46  83 NE5       30.03R
$$

WIZ029-030-035-036-043>047-011400-
CENTRAL WISCONSIN

CITY           SKY/WX    TMP DP  RH WIND       PRES   REMARKS
WAUSAU         SUNNY     52  44  74 N8        30.00R
MOSINEE        SUNNY     52  46  82 N5        30.02R
MARSHFIELD     SUNNY     55  44  66 NE7       30.02R
STEVENS POINT  SUNNY     50  45  81 N7        30.01S
WAUPACA        SUNNY     55  45  68 N8        30.00R
WAUTOMA        SUNNY     57  44  62 N8        30.00R
WISC RAPIDS    SUNNY     57  46  66 N7        30.02R
CAMP DOUGLAS   MOSUNNY   52  52 100 NW2       30.00S
$$

WIZ011>013-019>022-031-037>040-048>050-011400-
NORTHEAST WISCONSIN

CITY           SKY/WX    TMP DP  RH WIND       PRES   REMARKS
ANTIGO         SUNNY     49  45  84 N10       30.01R
SHAWANO        SUNNY     54  45  72 N13G18    29.99S
OCONTO         CLOUDY    49  47  91 N9        29.98R
STURGEON BAY   CLOUDY    52  46  82 NE9       29.99R
GREEN BAY      SUNNY     54  46  74 N9        29.98R
MANITOWOC      CLOUDY    55  50  83 MISG      29.96R
APPLETON       MOSUNNY   50  43  76 N9        29.99R
CLINTONVILLE   SUNNY     52  43  71 N12       29.99R
OSHKOSH        SUNNY     55  45  68 N9        29.98R
$$

WIZ032>034-041-042-053>061-011400-
SOUTHWEST WISCONSIN

CITY           SKY/WX    TMP DP  RH WIND       PRES   REMARKS
LA CROSSE      SUNNY     59  50  72 NE9       30.00R
SPARTA         SUNNY     53  49  88 CALM      30.01S
VIROQUA        SUNNY     55  48  79 E9        30.00S
BOSCOBEL       MOSUNNY   58  52  80 NE6       29.99R
PRAIRIE DU CHI SUNNY     58  53  83 E3        29.99R
PLATTEVILLE    CLOUDY    59  56  91 NE8       29.98R
$$

WIZ056-057-062-063-064-067-068-011400-
SOUTH CENTRAL WISCONSIN

CITY           SKY/WX    TMP DP  RH WIND       PRES   REMARKS
REEDSBURG      SUNNY     56  47  72 NE6       29.99S
BARABOO/DELLS  SUNNY     55  44  67 CALM      30.00R
LONE ROCK      SUNNY     57  48  72 E6        30.00R
MINERAL POINT  CLOUDY    59  54  82 NE8       29.98R
MADISON        PTSUNNY   58  47  66 N5        29.98S
MIDDLETON      MOSUNNY   58  46  63 NE6       30.00R
WATERTOWN      MOSUNNY   56  47  71 N7        29.98S
MONROE         CLOUDY    59  55  88 E3        29.98R
JANESVILLE     CLOUDY    59  55  88 CALM      29.97S
$$

WIZ051-052-058>065-066-070>072-011400-
SOUTHEAST WISCONSIN

CITY           SKY/WX    TMP DP  RH WIND       PRES   REMARKS
MILWAUKEE      MOSUNNY   57  45  64 NW7       29.98R
WAUKESHA       MOSUNNY   55  46  71 NW7       29.98S
MILWAUKEE/TIMM SUNNY     55  43  62 N6        29.98R
RACINE         SUNNY     58  48  69 N6        29.99R
BURLINGTON     CLOUDY    56  52  87 CALM      29.97F
KENOSHA        PTSUNNY   58  50  75 N5        29.97S
FOND DU LAC    SUNNY     57  47  69 NW6       29.98R
SHEBOYGAN      CLOUDY    54  48  80 NW6       29.97R
WEST BEND      MOSUNNY   54  45  71 N3        29.97S
JUNEAU         SUNNY     54  46  73 N6        29.99S
$$

LSZ147-162-011400-
LAKE SUPERIOR

STATION/POSITION TIME  TEMP    WIND        PRES    WAVE
                       AIR SEA DIR/SP/G            HT/PER
                 (UTC) (F)     (DEG/KT/KT) (MB)    (FT/S)
W MID LAKE BUOY  1250   43 38  200/  6/  6 1017.6R   1/ 5
DEVILS ISLAND    1300   54     120/  1/  3 1017.4R
SAXON HARBOR     1200   46      CALM  /  4 1016.6R
$$

LMZ867-665-643>646-011400-
LAKE MICHIGAN

STATION/POSITION TIME  TEMP    WIND        PRES    WAVE
                       AIR SEA DIR/SP/G            HT/PER
                 (UTC) (F)     (DEG/KT/KT) (MB)    (FT/S)
CHAMBERS ISLAND  1200   51     330/ 13/ 16 1014.9R
N MID LAKE BUOY  1250   45 40  330/ 10/ 12 1014.2R   2/ 4
NORTHPORT PIER   1200   51     330/ 14/ 17 1014.6R
SISTER BAY       1244   51     340/ 16/ 19   N/A
ALGOMA LAKESHORE 1210          320/  6/ 10   N/A
KEWAUNEE LAKESHO 1200   53     330/  2/  6 1013.6S
SHEBOYGAN LAKESH 1300   54     290/  4/  6 1014.8R
PORT WASHINGTON  1240   57     320/  6/  9 1015.6R
ATWATER BUOY     1300   57     310/  6/  8 1016.2R
MILWAUKEE LAKESH 1300   57     320/  4/  8   N/A
KENOSHA   LAKESH 1300   57     350/  4/  5 1014.9S
$$

TC  - TEMPERATURE IN CELSIUS
VSB - VISIBILITY IN STATUTE MILES
WCI - WIND CHILL INDEX
HX  - HEAT INDEX



USA.gov is the U.S. government's official web portal to all federal, state and local government web resources and services.